RH
79 74 77 88 82 77 74 67 61 52 43 39 35 33 39 42 46 44 35 40 41 40 44 47 48 52 57 65 65 60 60 62 61 59 55 53 49 33 25 23 24 22 25 26
60 74 71 70 76 64 65 67 62 57 49 46 46 46 47 46 50 45 41 41 45 46 48 50 52 57 64 69 62 60 61 58 47 43 47 49 34 26 24 25 24 27 28 26
66 56 59 62 61 65 64 66 56 69 53 50 51 51 50 50 51 49 46 44 44 50 52 54 58 64 69 60 60 59 49 37 37 36 41 30 26 25 26 25 28 28 27 21
79 64 75 51 51 44 48 45 64 65 61 56 56 57 55 54 53 54 52 43 47 53 56 56 63 62 58 61 54 37 27 33 32 32 28 25 25 27 26 30 30 28 24 22
81 65 58 53 52 54 55 53 54 57 56 61 61 56 55 55 56 56 53 50 54 56 56 57 58 61 61 44 22 21 26 28 28 27 25 26 26 27 31 30 31 28 28 28
83 69 70 51 40 42 45 56 53 52 56 56 59 57 53 55 55 57 57 56 56 57 60 61 63 52 29 19 20 23 24 26 26 26 26 26 30 33 34 34 32 31 30 25
91 84 64 59 51 40 49 48 39 39 52 55 51 49 55 63 59 60 60 60 63 62 64 60 42 24 20 21 21 21 23 24 26 25 28 33 35 37 37 36 33 31 28 25
100 98 84 60 55 44 47 43 36 35 37 39 46 53 60 68 64 66 68 66 65 65 53 31 21 21 20 18 19 22 24 25 25 30 35 37 39 41 41 35 32 30 28 27
88 74 61 60 51 50 48 46 47 42 41 41 48 60 68 68 61 66 69 69 59 38 23 23 22 18 16 18 20 21 22 25 32 37 38 42 45 43 37 35 33 30 27 23
80 73 63 60 58 53 42 43 45 47 49 51 54 59 62 66 73 70 62 48 27 24 24 20 15 15 16 17 18 21 27 35 37 36 44 49 47 43 39 36 32 28 24 17
80 69 63 65 58 57 50 52 52 51 54 62 68 73 72 68 63 51 31 26 26 21 15 16 16 16 15 17 22 30 37 37 38 49 52 48 49 47 41 33 29 24 17 14
79 70 75 70 60 54 54 55 56 58 57 62 68 69 68 57 34 28 28 24 18 20 19 16 12 13 18 24 32 36 37 42 53 56 55 55 52 46 39 31 26 17 15 16
60 54 51 58 57 57 52 58 62 64 63 69 74 70 52 30 29 28 20 20 21 19 13 11 14 19 24 32 37 38 46 55 59 61 60 59 54 45 36 29 18 14 14 15
64 62 66 68 63 56 54 58 70 73 76 80 76 60 36 32 25 20 22 22 18 14 13 14 18 24 32 36 39 48 57 62 64 67 65 61 49 35 30 20 14 10 12 15
60 58 55 55 53 60 65 71 77 81 86 84 65 36 33 24 22 23 22 19 16 14 15 18 24 31 34 38 50 59 64 67 71 70 68 54 36 32 21 15 12 12 12 14
52 51 57 60 72 75 67 75 86 90 90 74 38 34 25 24 25 24 20 17 17 18 20 22 24 29 39 52 60 66 71 76 77 74 60 38 33 23 16 13 12 12 14 23
55 62 73 80 82 75 78 92 98 97 80 42 36 27 26 29 28 22 20 20 20 18 17 18 27 42 50 57 67 72 77 80 79 64 39 35 25 18 14 13 12 14 24 40
76 89 85 72 65 70 78 98 99 77 44 39 31 29 31 30 25 22 21 21 19 16 18 31 40 46 57 65 70 77 82 80 63 41 36 28 21 16 14 13 15 24 37 43
84 88 80 76 71 83 92 91 59 47 40 34 33 33 30 26 23 21 22 19 16 17 27 33 47 58 68 74 80 84 81 59 42 37 31 23 17 16 14 15 24 37 43 44
92 91 88 82 82 88 73 56 50 40 36 35 32 28 26 25 22 22 19 15 15 20 26 42 56 67 76 79 80 76 53 44 39 33 24 18 17 15 14 23 35 42 45 46
99 98 90 81 78 69 58 47 39 38 34 30 29 28 27 25 24 18 14 14 20 22 37 51 64 75 79 80 69 52 46 40 34 25 18 18 16 15 20 34 41 47 47 48
100 97 92 73 67 56 42 40 36 31 31 31 30 29 28 25 19 15 15 16 20 30 44 60 71 78 76 63 54 46 41 35 25 19 19 16 15 20 34 42 46 47 45 46
98 97 81 62 52 44 40 34 33 34 35 34 31 28 25 19 16 14 15 22 28 44 62 73 76 70 64 53 46 42 36 24 19 20 17 16 24 37 43 46 48 48 48 46
97 94 87 56 45 36 34 36 38 37 35 32 29 25 21 16 13 15 20 29 46 60 69 70 69 62 52 47 43 35 22 20 21 17 16 26 38 45 48 50 52 53 52 50
99 97 77 41 36 38 38 38 38 36 32 29 25 20 15 14 17 25 38 52 63 69 71 70 61 53 47 43 33 21 20 21 16 15 26 38 47 49 53 54 54 53 50 47
74 42 36 39 39 39 39 39 37 32 27 23 18 15 17 22 31 44 58 69 72 74 69 60 52 47 42 29 20 21 20 15 18 31 41 48 51 56 56 55 56 55 52 41
36 41 41 39 38 40 41 38 30 25 20 16 16 20 25 34 51 67 75 76 73 66 57 50 46 39 24 19 21 16 14 22 37 44 49 54 59 60 58 56 57 55 44 39
Wind_Speed
13 10 27 22 26 25 24 16 7 6 8 11 13 10 6 5 4 7 7 9 11 17 22 23 23 24 26 26 28 30 33 35 37 39 40 42 44 45 45 44 43 43 44 46
9 9 8 7 17 22 28 22 20 14 10 13 7 13 16 12 8 8 10 11 13 17 21 23 23 25 26 27 29 31 34 36 39 40 40 42 44 44 42 41 41 43 45 47
7 11 10 9 20 20 23 24 25 27 22 16 13 16 16 17 14 11 13 14 14 18 20 21 23 25 26 28 29 33 36 37 38 39 40 42 42 41 40 41 43 45 46 47
4 9 2 5 4 18 25 25 26 29 23 18 20 22 24 19 19 16 16 15 17 20 21 21 24 25 25 27 31 34 35 35 38 38 40 40 39 39 40 43 44 45 46 46
3 9 5 11 8 11 20 26 23 22 19 26 24 22 21 21 19 17 18 17 17 19 20 21 22 23 26 30 31 32 33 35 36 38 38 37 37 39 40 43 43 44 45 48
6 3 2 2 3 4 6 13 15 16 25 25 31 27 25 22 21 19 16 18 18 18 19 20 22 25 28 28 29 31 33 34 35 36 36 36 37 38 40 42 44 45 46 49
11 3 5 11 7 1 6 1 2 10 20 25 25 22 18 14 13 15 16 16 16 17 18 20 24 25 25 27 28 30 31 32 34 33 34 35 37 39 41 43 44 45 47 49
16 6 9 4 5 6 3 1 1 1 7 14 18 18 16 13 10 13 14 14 15 17 20 22 22 23 25 26 27 28 30 31 31 31 33 36 38 40 41 42 45 46 49 50
15 12 4 5 3 4 8 10 9 6 4 7 10 11 12 11 10 12 13 14 16 18 18 20 22 23 23 25 26 28 29 28 29 31 34 36 39 40 41 44 47 49 50 51
14 18 13 13 14 10 8 7 5 4 4 7 9 11 11 10 11 12 14 16 16 16 18 20 21 23 24 25 26 26 26 28 30 33 34 36 37 39 42 46 48 50 52 54
24 15 12 13 12 13 10 8 8 7 8 9 10 11 10 11 12 14 13 14 15 17 18 20 22 22 23 23 23 24 26 29 32 33 35 37 38 41 44 46 49 51 52 52
21 16 21 20 13 9 10 10 9 8 8 10 10 9 10 12 11 11 12 15 16 18 19 21 21 21 21 22 23 25 28 30 32 34 36 38 40 42 44 46 48 48 47 47
15 13 7 12 14 12 12 13 13 13 13 12 11 11 12 12 11 12 13 16 18 19 19 19 19 20 21 22 25 27 29 32 33 35 37 40 43 46 47 46 48 48 46 44
13 12 11 13 12 11 14 15 15 15 14 13 12 13 12 11 11 13 15 17 17 17 18 19 20 21 22 24 27 29 31 33 35 37 39 42 44 46 49 51 51 48 44 41
13 14 14 15 13 13 14 16 17 17 15 14 13 12 10 11 12 14 16 16 17 17 18 19 20 21 24 26 28 30 32 34 36 37 40 43 45 46 48 49 47 45 43 40
17 18 18 17 14 13 15 18 19 17 15 14 12 11 10 11 14 16 16 17 17 17 19 20 22 24 26 27 29 32 33 35 37 40 42 44 45 47 47 46 44 42 41 42
17 18 17 17 15 15 17 19 18 16 14 12 11 10 11 13 16 16 17 17 17 19 21 22 23 25 27 29 31 33 35 36 38 40 42 44 45 46 45 44 41 41 40 40
17 18 16 14 11 13 16 17 15 14 12 11 9 10 13 16 16 16 16 18 19 21 22 22 25 27 29 30 32 34 35 37 39 41 43 45 45 44 42 40 40 40 40 39
21 19 16 12 13 15 16 15 15 13 10 8 9 12 15 16 15 16 18 19 21 22 21 24 26 27 29 31 33 34 36 37 40 42 44 45 43 41 39 39 39 39 39 39
22 19 15 14 17 18 17 15 12 9 7 9 12 14 15 16 17 18 20 21 22 23 24 24 26 28 30 31 33 34 36 39 41 43 43 43 41 39 38 38 38 38 37 34
20 15 14 17 18 17 15 12 8 6 7 10 13 15 16 17 19 20 21 22 23 25 26 27 28 29 31 32 33 35 38 40 42 42 41 40 38 37 37 37 37 36 33 30
16 17 18 19 18 17 13 8 5 6 9 12 15 17 18 19 20 21 23 23 24 25 26 28 29 30 31 32 34 36 39 41 42 41 39 37 37 37 36 36 33 30 28 28
20 19 18 18 17 12 6 5 6 9 12 15 17 18 19 20 21 23 24 25 25 26 27 28 29 30 32 33 35 38 41 41 40 38 36 36 36 36 35 32 30 29 27 26
18 19 16 16 11 6 5 6 9 12 15 17 18 19 20 21 23 24 24 25 26 26 26 27 29 30 32 35 38 41 41 39 37 36 35 35 35 34 32 31 29 27 25 22
19 18 15 11 7 6 7 10 14 16 17 18 19 20 21 22 23 24 24 25 25 25 26 28 30 32 35 38 41 41 38 36 35 35 35 35 33 32 30 28 26 26 22 18
17 14 10 7 5 7 11 15 17 18 18 18 19 20 21 23 24 24 24 24 24 26 27 29 31 35 38 41 40 37 35 35 34 34 34 33 32 30 28 26 24 24 18 14
12 8 5 5 9 13 16 17 17 16 17 18 20 21 23 23 23 23 23 24 25 26 28 31 34 38 40 38 35 34 34 33 34 34 32 31 30 29 27 24 20 18 12 10
Wind_Direction
57 140 181 176 200 203 212 206 227 212 160 177 194 193 226 244 257 258 249 231 243 248 240 240 245 255 263 273 284 290 293 296 298 301 304 307 311 313 316 317 319 320 320 320
79 99 139 213 217 216 212 211 205 207 215 221 219 243 253 263 277 261 228 234 245 249 245 246 252 260 271 281 287 291 294 296 299 300 305 309 311 314 316 317 319 320 322 323
90 168 173 221 219 228 229 231 221 222 213 208 246 236 249 253 267 245 252 262 259 251 248 249 259 270 278 285 288 291 292 295 297 303 308 310 312 315 317 319 322 324 324 323
109 139 168 230 242 235 239 238 235 232 223 233 247 240 234 250 259 253 257 257 252 247 247 258 267 274 280 283 287 289 292 295 301 309 308 311 314 317 320 322 324 324 323 324
166 222 247 304 251 231 220 240 239 233 236 230 241 245 244 249 253 267 266 255 244 244 255 265 269 277 282 285 288 290 295 300 305 306 311 313 316 319 321 323 324 323 326 326
176 211 241 159 31 247 221 231 230 227 221 228 232 240 250 249 258 257 244 242 244 252 261 269 277 279 283 286 290 296 300 302 304 309 312 315 318 320 324 324 326 326 327 327
213 247 262 261 293 95 168 108 185 216 207 221 232 238 237 244 245 235 233 238 247 258 267 272 277 282 285 291 296 298 300 303 307 310 313 316 321 325 326 326 328 327 326 326
209 229 263 248 263 209 211 302 351 128 214 227 235 236 229 235 230 226 233 244 254 265 272 278 281 288 293 296 297 300 302 305 308 312 315 320 325 326 326 326 327 327 328 327
203 225 234 241 296 288 265 268 278 295 262 226 217 211 214 227 221 225 240 257 268 275 279 285 291 294 296 298 300 303 304 307 311 314 320 324 325 325 327 328 328 329 327 327
213 219 202 254 270 269 275 270 270 255 228 208 197 198 207 214 231 247 259 269 274 281 287 292 296 297 298 300 302 303 307 310 314 320 323 323 324 326 328 330 329 328 328 327
219 210 218 252 255 263 260 256 251 246 217 198 194 201 216 233 252 263 267 275 283 292 297 296 296 298 299 301 303 307 311 315 319 321 322 323 325 328 331 331 329 329 329 328
231 236 247 248 256 252 246 251 248 230 215 207 213 229 253 268 266 268 277 287 292 295 296 296 298 299 302 305 308 311 314 318 321 321 322 324 326 329 330 329 329 329 329 329
248 248 253 229 238 242 249 246 237 225 220 224 242 260 262 257 262 275 286 293 297 300 300 300 301 304 305 307 311 314 319 319 320 322 324 327 329 328 327 329 330 330 330 329
217 214 223 234 239 249 250 240 225 221 225 237 253 254 249 256 272 285 294 299 301 302 303 303 304 305 308 312 315 317 318 320 322 325 327 328 327 328 329 330 329 330 331 332
228 239 240 247 254 252 239 228 225 225 233 245 247 242 250 268 285 298 305 304 304 305 304 304 306 310 312 314 315 315 317 320 323 325 326 327 329 328 329 329 329 331 333 334
250 252 248 252 251 240 230 225 223 227 235 238 235 245 264 286 302 306 306 307 309 309 307 310 313 312 311 312 312 315 319 322 324 326 327 328 328 328 328 329 332 333 334 335
240 237 239 250 244 230 218 215 220 225 230 227 238 259 284 304 310 310 310 310 312 313 314 313 311 309 310 311 314 318 321 323 324 325 326 326 327 328 329 331 332 333 334 337
223 212 219 219 224 230 217 213 215 218 218 232 257 284 300 307 311 311 310 314 317 316 316 313 309 310 310 313 317 320 321 322 323 325 326 326 328 329 330 330 331 333 335 338
223 224 230 238 228 202 201 207 207 211 226 256 283 296 305 309 308 309 315 318 317 317 314 310 309 311 313 316 319 319 319 321 324 325 325 326 327 328 329 330 332 334 335 336
220 217 228 238 203 192 196 199 202 218 249 279 297 305 307 307 313 317 316 315 316 312 312 311 311 313 316 318 318 318 321 323 323 323 324 325 327 328 329 331 332 333 334 335
208 211 220 208 193 192 191 192 207 241 281 300 306 309 312 315 315 313 311 314 311 312 313 314 317 319 318 318 318 321 321 321 322 323 325 326 326 328 329 330 332 332 333 332
202 201 199 187 186 182 185 201 245 285 304 311 314 318 318 313 310 310 310 311 312 313 315 317 318 317 318 318 319 319 320 321 323 324 326 326 326 327 329 330 330 330 331 333
192 187 182 180 178 184 204 243 282 301 312 318 319 315 311 307 307 308 310 313 315 317 317 317 318 318 317 317 319 320 321 323 324 325 325 325 326 326 327 329 329 326 326 331
190 181 180 182 188 206 237 276 303 317 321 319 313 310 308 308 309 311 314 315 316 317 316 317 317 317 318 319 320 322 323 323 324 325 324 324 325 327 328 327 327 326 326 328
188 194 186 192 207 237 280 311 320 320 316 311 308 307 307 309 311 314 314 314 314 316 317 317 317 318 319 321 322 323 323 324 324 324 325 326 327 327 328 328 327 329 330 327
177 181 192 211 251 297 316 318 314 310 308 306 306 307 309 312 312 312 313 315 317 317 317 317 318 319 321 322 322 323 324 325 324 326 326 326 326 326 326 326 326 331 327 322
185 196 223 280 305 310 311 307 305 304 304 306 308 310 311 311 312 314 316 316 316 317 317 318 320 322 322 322 323 324 325 325 326 326 326 327 326 325 323 324 329 329 321 321